This is the latest recevied weather packets stored in our database for station/object S51UL-6. If no packets are shown the sender has not sent any weather packets the latest 10 day(s).
| Time | Temp. | Humidity | Pressure | Rain* | Wind** | Luminosity | Snow |
|---|---|---|---|---|---|---|---|
| 1787850173 | 27.78° C | 63% | 1016.4 hPa | 0 mm | - | - | - |
| 1787848973 | 28.33° C | 60% | 1016.6 hPa | 0 mm | - | - | - |
| 1787848673 | 28.89° C | 59% | 1016.5 hPa | 0 mm | - | - | - |
| 1787848373 | 28.89° C | 58% | 1016.7 hPa | 0 mm | - | - | - |
| 1787848073 | 29.44° C | 57% | 1016.9 hPa | 0 mm | - | - | - |
| 1787847773 | 29.44° C | 57% | 1016.8 hPa | 0 mm | - | - | - |
| 1787847474 | 29.44° C | 56% | 1016.8 hPa | 0 mm | - | - | - |
| 1787847173 | 30° C | 56% | 1016.7 hPa | 0 mm | - | - | - |
| 1787846273 | 30° C | 54% | 1016.8 hPa | 0 mm | - | - | - |
| 1787845974 | 30.56° C | 54% | 1016.9 hPa | 0 mm | - | - | - |
| 1787845674 | 30.56° C | 53% | 1017 hPa | 0 mm | - | - | - |
| 1787845375 | 30.56° C | 53% | 1017 hPa | 0 mm | - | - | - |
| 1787845074 | 30.56° C | 53% | 1016.9 hPa | 0 mm | - | - | - |
| 1787844774 | 31.11° C | 52% | 1017 hPa | 0 mm | - | - | - |
| 1787844474 | 31.11° C | 51% | 1016.9 hPa | 0 mm | - | - | - |
| 1787843874 | 31.67° C | 51% | 1016.8 hPa | 0 mm | - | - | - |
| 1787843274 | 32.22° C | 50% | 1016.7 hPa | 0 mm | - | - | - |
| 1787842674 | 32.78° C | 49% | 1016.8 hPa | 0 mm | - | - | - |
| 1787842374 | 32.78° C | 48% | 1016.9 hPa | 0 mm | - | - | - |
| 1787842074 | 33.33° C | 48% | 1016.9 hPa | 0 mm | - | - | - |
| 1787841774 | 33.33° C | 47% | 1016.9 hPa | 0 mm | - | - | - |
| 1787841474 | 33.89° C | 48% | 1016.7 hPa | 0 mm | - | - | - |
| 1787841174 | 33.89° C | 49% | 1016.6 hPa | 0 mm | - | - | - |
| 1787840575 | 34.44° C | 48% | 1016.7 hPa | 0 mm | - | - | - |
| 1787839975 | 33.89° C | 48% | 1016.8 hPa | 0 mm | - | - | - |
* Rain latest hour (hover to see other rain measurements)
** Current wind speed in m/s (hover to see current wind gust speed)